EW5043 Weather Reports


time (UTC)temp
C
wind
direction
speed
KPH
gust
KPH
rain 1hr
cm
rain 24hr
cm
rain mn
cm
humidity
%
barometer
mb
20260509134531 12 192 12.9 0.0 0.00 0.00 0.00 100 1006.9
20260509133121 11 180 12.9 0.0 0.00 0.00 0.00 100 1006.9
20260509131512 11 184 16.1 0.0 0.00 0.00 0.00 100 1007.0
20260509130009 11 190 14.5 0.0 0.00 0.00 0.00 100 1007.0
20260509124555 10 170 12.9 0.0 0.00 0.00 0.00 6 1007.2
20260509123115 9 180 14.5 0.0 0.00 0.00 0.00 5 1007.2
20260509121540 9 183 14.5 0.0 0.00 0.00 0.00 6 1007.4
20260509120031 8 191 14.5 0.0 0.00 0.00 0.00 8 1007.3
20260509114519 8 191 16.1 0.0 0.00 0.00 0.00 16 1007.5
20260509113012 8 180 17.7 0.0 0.00 0.00 0.00 16 1007.6
20260509111607 8 184 17.7 0.0 0.00 0.00 0.00 10 1007.5
20260509110106 7 188 16.1 0.0 0.00 0.00 0.00 15 1007.4
20260509104554 7 190 17.7 0.0 0.00 0.00 0.00 10 1007.3
20260509103145 7 194 12.9 0.0 0.00 0.00 0.00 12 1007.4
20260509101637 7 188 14.5 0.0 0.00 0.00 0.00 11 1007.3
20260509100027 7 193 16.1 0.0 0.00 0.00 0.00 1 1007.2
20260509094524 7 194 12.9 0.0 0.00 0.00 0.00 100 1007.1
20260509093109 7 186 12.9 0.0 0.00 0.00 0.00 100 1007.2
20260509091559 6 188 14.5 0.0 0.00 0.00 0.00 100 1007.4
20260509090151 6 190 16.1 0.0 0.00 0.00 0.00 100 1007.6
20260509084541 6 192 17.7 0.0 0.00 0.00 0.00 100 1007.7
20260509083032 6 189 16.1 0.0 0.00 0.00 0.00 100 1008.0
20260509081625 7 187 14.5 0.0 0.00 0.00 0.00 3 1008.2
20260509080014 7 182 14.5 0.0 0.00 0.00 0.00 18 1008.2
20260509073056 7 180 16.1 0.0 0.00 0.00 0.00 25 1008.2
20260509071650 8 171 12.9 0.0 0.00 0.00 0.00 27 1008.2
20260509070139 8 168 11.3 0.0 0.00 0.00 0.00 16 1008.2
20260509064529 8 192 9.7 0.0 0.00 0.00 0.00 27 1008.2
20260509063023 8 191 9.7 0.0 0.00 0.00 0.00 27 1008.4
20260509061610 8 193 6.4 0.0 0.00 0.00 0.00 36 1008.6
20260509060002 8 191 8.0 0.0 0.00 0.00 0.00 30 1008.7
20260509054609 8 195 8.0 0.0 0.00 0.00 0.00 40 1009.0
20260509053051 8 195 8.0 0.0 0.00 0.00 0.00 43 1009.1
20260509051542 8 192 6.4 0.0 0.00 0.00 0.00 46 1009.1
20260509050031 8 187 6.4 0.0 0.00 0.00 0.00 44 1009.3
20260509044523 9 183 8.0 0.0 0.00 0.00 0.00 44 1009.4
20260509043015 9 186 8.0 0.0 0.00 0.00 0.00 45 1009.6
20260509041517 9 185 11.3 0.0 0.00 0.00 0.00 50 1009.7
20260509040100 9 188 8.0 0.0 0.00 0.00 0.00 49 1009.7
20260509034551 8 184 3.2 0.0 0.00 0.00 0.10 40 1009.7
20260509033042 8 182 4.8 0.0 0.00 0.00 0.10 40 1009.8
20260509031534 9 181 9.7 0.0 0.00 0.00 0.10 38 1009.7
20260509030024 9 167 8.0 0.0 0.00 0.00 0.10 35 1009.8
20260509024516 9 166 9.7 0.0 0.00 0.00 0.10 41 1009.8
20260509023007 9 144 9.7 0.0 0.00 0.00 0.10 27 1009.9
20260509021559 9 119 6.4 0.0 0.00 0.00 0.10 18 1009.9
20260509020052 9 39 3.2 0.0 0.00 0.00 0.10 26 1010.0
20260509014543 10 39 1.6 0.0 0.00 0.00 0.10 31 1009.9
20260509013035 10 39 3.2 0.0 0.00 0.00 0.10 41 1009.7
20260509011524 10 39 1.6 0.0 0.00 0.00 0.10 50 1009.5
20260509010114 10 38 0.0 0.0 0.00 0.00 0.10 55 1009.3
20260509004508 11 38 0.0 0.0 0.00 0.00 0.10 54 1009.1
20260509003103 11 38 0.0 0.0 0.00 0.00 0.10 51 1009.0
20260509001548 11 38 0.0 0.0 0.00 0.00 0.10 48 1008.9
20260509000045 11 38 1.6 0.0 0.00 0.00 0.10 50 1008.9
20260508234532 11 38 1.6 0.0 0.00 0.00 0.10 52 1008.9
20260508233023 11 38 1.6 0.0 0.00 0.00 0.10 52 1009.0
20260508231514 11 38 1.6 0.0 0.00 0.00 0.10 51 1008.9
20260508230005 11 38 3.2 0.0 0.00 0.00 0.10 52 1008.8
20260508224603 11 38 3.2 0.0 0.00 0.00 0.10 52 1008.8
20260508223047 11 38 3.2 0.0 0.00 0.00 0.10 53 1008.9
20260508221538 11 38 1.6 0.0 0.00 0.00 0.10 51 1009.0
20260508220103 11 38 1.6 0.0 0.00 0.00 0.10 52 1009.1
20260508214622 11 39 0.0 0.0 0.00 0.00 0.10 49 1009.1
20260508211503 10 39 4.8 0.0 0.00 0.00 0.10 35 1009.3
20260508210157 10 40 4.8 0.0 0.00 0.00 0.10 36 1009.4
20260508204546 9 36 6.4 0.0 0.00 0.00 0.10 29 1009.6
20260508203046 8 32 4.8 0.0 0.00 0.00 0.10 17 1009.8
20260508201545 8 31 6.4 0.0 0.00 0.00 0.10 6 1010.0
20260508200037 9 21 4.8 0.0 0.00 0.00 0.10 6 1010.1
20260508194534 9 11 4.8 0.0 0.00 0.00 0.10 100 1010.3
20260508193123 9 350 4.8 0.0 0.00 0.00 0.10 100 1010.5
20260508191517 8 13 6.4 0.0 0.00 0.00 0.10 100 1010.5
20260508190109 8 22 8.0 0.0 0.00 0.00 0.10 100 1010.5
20260508184554 8 5 8.0 0.0 0.00 0.00 0.10 100 1010.5
20260508183047 8 5 9.7 0.0 0.00 0.00 0.10 100 1010.5
20260508181548 7 360 11.3 0.0 0.00 0.00 0.10 100 1010.6
20260508180027 8 351 11.3 0.0 0.00 0.00 0.10 4 1010.7
20260508174529 9 348 8.0 0.0 0.00 0.00 0.10 13 1010.7
20260508173008 8 344 6.4 0.0 0.00 0.00 0.10 100 1010.8
20260508171600 8 348 8.0 0.0 0.00 0.00 0.10 100 1011.1
20260508170153 8 331 6.4 0.0 0.00 0.00 0.10 100 1011.1
20260508164645 8 339 6.4 0.0 0.00 0.00 0.10 100 1011.2
20260508163039 8 327 6.4 0.0 0.00 0.00 0.08 100 1011.2
20260508161627 8 327 8.0 0.0 0.00 0.00 0.08 100 1011.2
20260508160118 8 319 8.0 0.0 0.00 0.00 0.08 100 1011.3
20260508154508 8 319 8.0 0.0 0.00 0.00 0.08 100 1011.1
20260508153200 8 305 6.4 0.0 0.00 0.00 0.08 3 1011.0
20260508151550 8 301 6.4 0.0 0.00 0.00 0.08 16 1010.9
20260508150041 8 295 4.8 0.0 0.00 0.00 0.08 24 1010.8
20260508144531 8 295 3.2 0.0 0.00 0.00 0.08 39 1010.9
20260508143025 8 295 4.8 0.0 0.00 0.00 0.08 27 1011.0
20260508141513 7 295 4.8 0.0 0.00 0.00 0.08 21 1011.1
20260508140105 7 295 4.8 0.0 0.00 0.00 0.08 100 1011.2